Buffalo, NY

6:02 PM EDT on August 20, 2017 (GMT -0400)
Buffalo Niagara International

Weather History for KBUF - March, 2012

Change the Weather History Date:

Tuesday, March 13, 2012

  Actual Average Record
Temperature  
Mean Temperature 50 °F 33 °F  
Max Temperature 61 °F 41 °F 69 °F (1927)
Min Temperature 39 °F 25 °F -4 °F (1885)
Degree Days  
Heating Degree Days 15 32  
Month to date heating degree days 325 444  
Since 1 July heating degree days 4278 5188  
Cooling Degree Days 0 0  
Month to date cooling degree days 0 0  
Year to date cooling degree days 0 0  
Moisture  
Dew Point 45 °F    
Average Humidity 86    
Maximum Humidity 100    
Minimum Humidity 71    
Precipitation  
Precipitation 0.13 in 0.09 in 1.39 in (1878)
Month to date precipitation 1.14 1.17  
Year to date precipitation 7.29 6.84  
Snow  
Snow 0.00 in 0.50 in 12.40 in (1993)
Month to date snowfall 0.9 6.8  
Since 1 July snowfall 35.1 85.6  
Snow Depth 0.00 in    
Sea Level Pressure  
Sea Level Pressure 29.93 in    
Wind  
Wind Speed 14 mph (SW)    
Max Wind Speed 31 mph    
Max Gust Speed 40 mph    
Visibility 6 miles    
Events Fog , Rain    
T = Trace of Precipitation, MM = Missing Value Source: NWS Daily Summary

Daily Weather History Graph

Daily Weather History Graph

Search for Another Location

Airport or City:

Trip Planner

Search our weather history database for the weather conditions in past years. The results will help you decide how hot, cold, wet, or windy it might be!

Date:

Astronomy

Mar. 13, 2012 Rise Set
Actual Time 7:29 AM EDT 7:19 PM EDT
Civil Twilight 7:01 AM EDT 7:47 PM EDT
Nautical Twilight 6:28 AM EDT 8:20 PM EDT
Astronomical Twilight 5:55 AM EDT 8:54 PM EDT
Moon 12:58 AM EDT (3/13) 10:31 AM EDT (3/13)
Length of Visible Light 12h 46m
Length of Day
11h 49m
Waning Gibbous, 66% of the Moon is Illuminated
Mar 13
Waning Gibbous
Mar 14
Last Quarter
Mar 22
New
Mar 30
First Quarter
Apr 6
Full

Hourly Weather History & Observations

Time (EDT) Temp. Windchill Dew Point Humidity Pressure Visibility Wind Dir Wind Speed Gust Speed Precip Events Conditions
12:24 AM 57.2 °F - 51.8 °F 82% 29.91 in 10.0 mi SSW 17.3 mph - N/A   Mostly Cloudy
12:54 AM 57.0 °F - 51.1 °F 81% 29.90 in 10.0 mi SSW 15.0 mph - N/A   Overcast
1:54 AM 57.0 °F - 51.1 °F 81% 29.88 in 10.0 mi SSW 12.7 mph - N/A   Overcast
2:54 AM 59.0 °F - 52.0 °F 78% 29.86 in 10.0 mi SSW 13.8 mph - N/A   Overcast
3:54 AM 61.0 °F - 51.1 °F 70% 29.85 in 10.0 mi WSW 21.9 mph 28.8 mph N/A   Overcast
4:54 AM 57.0 °F - 50.0 °F 77% 29.85 in 10.0 mi WSW 19.6 mph 26.5 mph 0.00 in Rain Light Rain
5:54 AM 54.0 °F - 50.0 °F 86% 29.87 in 1.0 mi WSW 23.0 mph 31.1 mph 0.00 in Rain Rain
6:04 AM 53.6 °F - 50.0 °F 88% 29.86 in 4.0 mi WSW 20.7 mph 29.9 mph 0.08 in Rain Light Rain
6:33 AM 51.8 °F - 50.0 °F 94% 29.87 in 6.0 mi WSW 12.7 mph - 0.11 in Rain Light Rain
6:54 AM 51.1 °F - 48.9 °F 92% 29.89 in 6.0 mi WSW 9.2 mph - 0.12 in Rain Light Rain
7:06 AM 50.0 °F - 48.2 °F 94% 29.88 in 4.0 mi SW 8.1 mph - 0.01 in Rain Light Rain
7:32 AM 46.4 °F 40.7 °F 46.4 °F 100% 29.90 in 0.8 mi SW 12.7 mph - 0.01 in   Mostly Cloudy
7:40 AM 46.4 °F 41.1 °F 44.6 °F 93% 29.90 in 0.2 mi WSW 11.5 mph - 0.01 in Fog Fog
7:54 AM 44.6 °F 39.7 °F 44.6 °F 100% 29.91 in 0.2 mi SW 9.2 mph - N/A Fog Fog
7:57 AM 44.6 °F 39.7 °F 44.6 °F 100% 29.91 in 0.1 mi SW 9.2 mph - N/A Fog Fog
8:13 AM 44.6 °F 39.7 °F 42.8 °F 93% 29.91 in 0.1 mi SW 9.2 mph - N/A Fog Fog
8:54 AM 43.0 °F 36.8 °F 42.1 °F 97% 29.94 in 0.1 mi SW 11.5 mph - N/A Fog Fog
9:54 AM 43.0 °F 36.0 °F 41.0 °F 93% 29.96 in 0.1 mi WSW 13.8 mph - N/A Fog Fog
10:47 AM 44.6 °F 38.8 °F 42.8 °F 93% 29.95 in 0.2 mi SW 11.5 mph - N/A Fog Fog
10:54 AM 44.1 °F 37.4 °F 43.0 °F 96% 29.96 in 0.5 mi WSW 13.8 mph - N/A Fog Fog
11:54 AM 45.0 °F 38.9 °F 44.1 °F 97% 29.96 in 0.8 mi SW 12.7 mph 23.0 mph N/A   Overcast
12:04 PM 46.4 °F 41.5 °F 44.6 °F 93% 29.95 in 3.0 mi WSW 10.4 mph - N/A   Mostly Cloudy
12:20 PM 48.2 °F - 44.6 °F 87% 29.95 in 6.0 mi WSW 13.8 mph - N/A   Scattered Clouds
12:54 PM 52.0 °F - 45.0 °F 77% 29.96 in 10.0 mi WSW 19.6 mph 24.2 mph N/A   Scattered Clouds
1:54 PM 53.1 °F - 46.0 °F 77% 29.94 in 10.0 mi WSW 21.9 mph 33.4 mph N/A   Scattered Clouds
2:54 PM 54.0 °F - 46.0 °F 75% 29.92 in 10.0 mi WSW 20.7 mph 32.2 mph N/A   Scattered Clouds
3:54 PM 55.0 °F - 46.0 °F 72% 29.92 in 10.0 mi WSW 21.9 mph 31.1 mph N/A   Scattered Clouds
4:54 PM 52.0 °F - 44.1 °F 74% 29.94 in 9.0 mi WSW 21.9 mph 33.4 mph N/A   Mostly Cloudy
5:54 PM 51.1 °F - 43.0 °F 74% 29.95 in 9.0 mi WSW 19.6 mph 29.9 mph N/A   Mostly Cloudy
6:54 PM 52.0 °F - 44.1 °F 74% 29.96 in 9.0 mi WSW 15.0 mph - N/A   Mostly Cloudy
7:54 PM 48.0 °F - 42.1 °F 80% 29.99 in 9.0 mi WSW 11.5 mph - N/A   Mostly Cloudy
8:54 PM 46.0 °F 41.0 °F 41.0 °F 83% 30.01 in 8.0 mi WSW 10.4 mph - N/A   Mostly Cloudy
9:54 PM 43.0 °F 39.5 °F 39.0 °F 86% 30.04 in 6.0 mi SW 5.8 mph - N/A   Scattered Clouds
10:54 PM 39.9 °F 35.1 °F 37.0 °F 89% 30.05 in 5.0 mi SW 6.9 mph - N/A   Partly Cloudy
11:54 PM 39.9 °F 34.5 °F 37.0 °F 89% 30.06 in 5.0 mi WSW 8.1 mph - N/A   Clear